History for Miami, FL

Sunday, December 9, 2012 — View Current Conditions

Jump to Data:

Date:
Airport Code:
Recently Viewed Airport Codes: KMIA
Daily Summary
  Actual Average Record
Temperature
Mean Temperature 78°F 72°F  
Max Temperature 84°F 79°F 87°F (2009)
Min Temperature 72°F 64°F 43°F (1930)
Degree Days
Heating Degree Days 0 1  
Month to date heating degree days 0 5  
Since 1 July heating degree days 1 8  
Cooling Degree Days 13 7  
Month to date cooling degree days 91 68  
Year to date cooling degree days 4531 4440  
Growing Degree Days 28 (Base 50)    
Moisture
Dew Point 72°F    
Average Humidity 85    
Maximum Humidity 100    
Minimum Humidity 69    
Precipitation
Precipitation 0.00 in 0.07 in 2.21 in (1987)
Month to date precipitation 0.24 0.63  
Year to date precipitation 86.67 60.49  
Snow
Snow 0.00 in in in ()
Month to date snowfall 0.0  
Since 1 July snowfall 0.0  
Snow Depth 0.00 in    
Sea Level Pressure
Sea Level Pressure 30.04 in    
Wind
Wind Speed 4 mph (SE)    
Max Wind Speed 12 mph    
Max Gust Speed 16 mph    
Visibility 10 miles    
Events      
T = Trace of Precipitation, MM = Missing Value Source: NWS Daily Summary

Show full METARS

(help) - Comma Delimited File

Hourly Observations

Time(EST) Temperature Dew Point Humidity Sea Level Pressure Visibility Wind Direction Wind Speed Gust Speed Precipitation Events Conditions
12:53 AM 75.0°F 72.0°F 90% 30.03 in 10.0 miles SE 3.5 mph - N/A   Partly Cloudy
1:53 AM 73.9°F 72.0°F 93% 30.02 in 10.0 miles Calm Calm - N/A   Scattered Clouds
2:21 AM 75.2°F 71.6°F 89% 30.02 in 10.0 miles ESE 3.5 mph - N/A   Mostly Cloudy
2:53 AM 73.9°F 72.0°F 93% 30.01 in 10.0 miles Calm Calm - N/A   Mostly Cloudy
3:37 AM 73.4°F 71.6°F 94% 30.02 in 10.0 miles Calm Calm - N/A   Partly Cloudy
3:53 AM 73.9°F 71.1°F 91% 30.02 in 10.0 miles Calm Calm - N/A   Partly Cloudy
4:53 AM 73.9°F 71.1°F 91% 30.03 in 10.0 miles Calm Calm - N/A   Scattered Clouds
5:53 AM 73.0°F 71.1°F 93% 30.04 in 10.0 miles Calm Calm - N/A   Scattered Clouds
6:53 AM 71.6°F 71.6°F 100% 30.05 in 10.0 miles Calm Calm - N/A   Mostly Cloudy
7:53 AM 73.0°F 72.0°F 96% 30.07 in 10.0 miles Calm Calm - N/A   Mostly Cloudy
8:53 AM 79.0°F 73.0°F 82% 30.08 in 10.0 miles Calm Calm - N/A   Scattered Clouds
9:53 AM 79.0°F 73.0°F 82% 30.10 in 10.0 miles ESE 4.6 mph - N/A   Mostly Cloudy
10:53 AM 81.0°F 73.9°F 79% 30.09 in 10.0 miles SSE 8.1 mph - N/A   Mostly Cloudy
11:53 AM 81.0°F 72.0°F 74% 30.07 in 10.0 miles ESE 10.4 mph - N/A   Mostly Cloudy
12:53 PM 82.0°F 72.0°F 71% 30.04 in 10.0 miles SE 8.1 mph - N/A   Mostly Cloudy
1:53 PM 82.9°F 73.0°F 72% 30.02 in 10.0 miles ESE 9.2 mph - N/A   Mostly Cloudy
2:53 PM 82.0°F 72.0°F 71% 30.01 in 10.0 miles South 6.9 mph - N/A   Mostly Cloudy
3:53 PM 82.0°F 72.0°F 71% 30.01 in 10.0 miles Variable 4.6 mph - N/A   Scattered Clouds
4:53 PM 80.1°F 73.0°F 79% 30.02 in 10.0 miles SE 10.4 mph - N/A   Scattered Clouds
5:53 PM 78.1°F 73.9°F 87% 30.03 in 10.0 miles SE 5.8 mph - N/A   Scattered Clouds
6:53 PM 77.0°F 73.0°F 88% 30.04 in 10.0 miles ESE 5.8 mph - N/A   Partly Cloudy
7:53 PM 77.0°F 73.0°F 88% 30.04 in 10.0 miles SE 4.6 mph - N/A   Scattered Clouds
8:53 PM 75.9°F 73.9°F 94% 30.05 in 10.0 miles SE 4.6 mph - N/A   Scattered Clouds
9:53 PM 75.9°F 73.9°F 94% 30.05 in 10.0 miles SSE 4.6 mph - N/A   Partly Cloudy
10:53 PM 75.9°F 73.0°F 91% 30.06 in 10.0 miles SE 3.5 mph - N/A   Partly Cloudy
11:53 PM 75.9°F 73.0°F 91% 30.04 in 10.0 miles SE 4.6 mph - N/A   Partly Cloudy